TimeCDT,TemperatureF,Dew PointF,Humidity,Sea Level PressureIn,VisibilityMPH,Wind Direction,Wind SpeedMPH,Gust SpeedMPH,PrecipitationIn,Events,Conditions,WindDirDegrees,DateUTC
12:53 AM,55.0,46.9,74,29.92,10.0,North,3.5,-,N/A,,Clear,10,2014-04-24 05:53:00
1:53 AM,54.0,46.9,77,29.91,10.0,East,5.8,-,N/A,,Clear,90,2014-04-24 06:53:00
2:53 AM,55.0,45.0,69,29.90,10.0,Calm,Calm,-,N/A,,Clear,0,2014-04-24 07:53:00
3:53 AM,57.9,43.0,58,29.88,10.0,ESE,5.8,-,N/A,,Clear,110,2014-04-24 08:53:00
4:53 AM,55.0,43.0,64,29.90,10.0,Calm,Calm,-,N/A,,Clear,0,2014-04-24 09:53:00
5:53 AM,59.0,43.0,55,29.91,10.0,ESE,10.4,-,N/A,,Clear,120,2014-04-24 10:53:00
6:53 AM,59.0,43.0,55,29.92,10.0,ESE,6.9,-,N/A,,Clear,110,2014-04-24 11:53:00
7:53 AM,63.0,45.0,52,29.94,10.0,SSE,6.9,-,N/A,,Clear,150,2014-04-24 12:53:00
8:53 AM,66.9,46.9,49,29.94,10.0,South,6.9,-,N/A,,Clear,180,2014-04-24 13:53:00
9:53 AM,72.0,51.1,48,29.93,10.0,South,11.5,-,N/A,,Clear,180,2014-04-24 14:53:00
10:53 AM,75.9,55.9,50,29.91,10.0,South,8.1,-,N/A,,Partly Cloudy,180,2014-04-24 15:53:00
11:53 AM,80.1,57.0,45,29.89,10.0,South,9.2,-,N/A,,Clear,190,2014-04-24 16:53:00
12:53 PM,80.1,55.0,42,29.89,10.0,SSW,20.7,-,N/A,,Partly Cloudy,210,2014-04-24 17:53:00
1:53 PM,80.1,57.0,45,29.88,10.0,South,16.1,-,N/A,,Scattered Clouds,190,2014-04-24 18:53:00
2:53 PM,82.0,59.0,45,29.85,10.0,SSW,17.3,-,N/A,,Partly Cloudy,210,2014-04-24 19:53:00
3:53 PM,84.0,57.0,40,29.78,10.0,South,17.3,-,N/A,,Clear,170,2014-04-24 20:53:00
4:53 PM,82.0,57.9,44,29.77,10.0,South,17.3,-,N/A,,Partly Cloudy,170,2014-04-24 21:53:00
5:53 PM,77.0,57.0,50,29.77,10.0,South,9.2,-,N/A,,Mostly Cloudy,180,2014-04-24 22:53:00
6:53 PM,77.0,57.9,52,29.72,10.0,SE,10.4,-,N/A,,Mostly Cloudy,140,2014-04-24 23:53:00
7:20 PM,69.1,62.1,78,29.79,1.5,WNW,8.1,21.9,0.22,Rain,Heavy Rain,290,2014-04-25 00:20:00
7:25 PM,66.0,63.0,90,29.78,0.5,North,6.9,21.9,0.52,Fog-Rain,Heavy Rain,360,2014-04-25 00:25:00
7:39 PM,64.9,63.0,93,29.78,1.5,NNE,10.4,-,0.68,Rain,Rain,30,2014-04-25 00:39:00
7:43 PM,64.9,63.0,93,29.77,3.0,NNE,9.2,-,0.69,Rain,Rain,20,2014-04-25 00:43:00
7:50 PM,66.2,64.4,94,29.77,5.0,NE,9.2,-,0.70,Rain,Rain,40,2014-04-25 00:50:00
7:53 PM,66.0,64.0,93,29.77,5.0,NE,8.1,-,0.70,Rain,Light Rain,40,2014-04-25 00:53:00
8:53 PM,66.9,64.9,93,29.83,1.2,WNW,9.2,-,0.27,Rain,Heavy Rain,290,2014-04-25 01:53:00
8:56 PM,66.0,64.9,96,29.84,0.8,NW,6.9,-,0.14,Rain,Heavy Rain,320,2014-04-25 01:56:00
9:00 PM,66.0,64.9,96,29.83,0.2,WSW,10.4,-,0.47,Fog-Rain,Heavy Rain,240,2014-04-25 02:00:00
9:08 PM,66.0,64.9,96,29.83,0.8,SSW,8.1,-,0.59,Rain,Heavy Rain,210,2014-04-25 02:08:00
9:13 PM,66.0,64.9,96,29.84,2.5,Variable,4.6,-,0.59,Rain,Light Rain,0,2014-04-25 02:13:00
9:21 PM,66.0,64.0,93,29.83,8.0,Calm,Calm,-,0.59,Rain,Light Rain,0,2014-04-25 02:21:00
9:24 PM,66.0,64.0,93,29.83,10.0,Calm,Calm,-,0.59,,Overcast,0,2014-04-25 02:24:00
9:53 PM,66.0,64.0,93,29.79,10.0,South,8.1,-,0.59,,Scattered Clouds,180,2014-04-25 02:53:00
10:26 PM,66.0,64.0,93,29.82,10.0,Calm,Calm,-,N/A,,Mostly Cloudy,0,2014-04-25 03:26:00
10:53 PM,64.9,64.0,97,29.82,10.0,Calm,Calm,-,0.00,Rain,Light Rain,0,2014-04-25 03:53:00
11:07 PM,64.9,64.0,97,29.82,4.0,SSW,5.8,-,0.02,Rain,Light Rain,210,2014-04-25 04:07:00
11:16 PM,66.0,64.0,93,29.83,10.0,WSW,8.1,-,0.02,Rain,Light Rain,250,2014-04-25 04:16:00
11:24 PM,66.9,64.9,93,29.83,10.0,WSW,8.1,-,0.02,Rain,Light Rain,250,2014-04-25 04:24:00
11:53 PM,66.9,63.0,87,29.84,10.0,West,8.1,-,0.02,,Overcast,280,2014-04-25 04:53:00